Location: Unspecified
(40.9799°N, 76.1133°W)
Time: 21:21:06
(UTC-04:00)

Envisat - Visible Passes

Search period start: 02 October 2022 00:00
Search period end: 12 October 2022 00:00
Orbit: 764 x 765 km, 98.2° (Epoch: 02 October)

Date Brightness Start Highest point End Pass type
(mag) Time Alt. Az. Time Alt. Az. Time Alt. Az.
02 Oct 5.9 04:02:25 10° ENE 04:04:29 12° E 04:06:31 10° ESE visible
02 Oct 2.9 05:38:56 10° N 05:44:00 75° WNW 05:49:03 10° SSW visible
03 Oct 3.9 05:02:06 10° NNE 05:07:02 49° E 05:11:55 10° S visible
04 Oct 5.3 04:25:56 10° NE 04:29:51 22° E 04:33:44 10° SE visible
04 Oct 3.4 06:04:14 10° N 06:09:00 43° WNW 06:13:46 10° SW visible
05 Oct 3.0 05:27:03 10° NNE 05:32:10 86° ESE 05:37:15 10° SSW visible
06 Oct 4.3 04:50:24 10° NNE 04:55:07 38° E 04:59:49 10° SSE visible
06 Oct 4.0 06:29:47 10° NNW 06:33:55 26° WNW 06:38:02 10° WSW visible
07 Oct 5.6 04:14:35 10° NE 04:17:53 17° E 04:21:09 10° SE visible
07 Oct 3.1 05:52:15 10° N 05:57:12 55° WNW 06:02:09 10° SSW visible
08 Oct 3.3 05:15:13 10° NNE 05:20:18 67° ESE 05:25:20 10° S visible
09 Oct 4.8 04:38:46 10° NE 04:43:11 30° E 04:47:35 10° SSE visible
09 Oct 3.7 06:17:40 10° N 06:22:09 32° WNW 06:26:36 10° SW visible
10 Oct 5.8 04:03:33 10° ENE 04:05:53 13° E 04:08:12 10° ESE visible
10 Oct 2.9 05:40:18 10° N 05:45:23 71° WNW 05:50:25 10° SSW visible
11 Oct 3.7 05:03:26 10° NNE 05:08:25 52° E 05:13:20 10° S visible
